[[{"header":{"parameterUnit":"m.s-1","parameterCategory":1,"la1":30.2991,"la2":30.254,"lo1":-89.0895,"lo2":-89.0444,"dy":0.0017,"dx":0.0017,"nx":28,"ny":28,"refTime":"2026-01-06T03:00:00:Z","depth":0,"parameterNumber":2,"parameterNumberName":"U-component_of_WINDS"},"data":[0,0,0,0,0,0,0,0,0,0,0,0,0,0,0,0,0,0,0,0,0,0,0,0,0,0,0,0,0,0,0,0,0,0,0,0,0,0,0,0,0,0,0,0,0,0,0,0,0,0,0,0,0,0,0,0,0,0,0.0756,0.0757,0,0.0847,0.0848,0.0849,0.0896,0.0897,0.0897,0.0897,0.0994,0.0997,0.1,0,0,0,0,0,0,0,0,0,0,0,0,0,0.0627,0.0629,0.0756,0.0757,0.0758,0.0847,0.0848,0.085,0.0896,0.0897,0.0897,0.0897,0.0994,0.0997,0.1,0,0,0,0,0,0,0,0,0,0,0,0,0,0.0697,0.0629,0.0756,0.0792,0.0796,0.0847,0.0848,0.085,0.0896,0.0897,0.0897,0.0897,0.0993,0.0996,0.1,0.1023,0,0,0.1012,0.1014,0,0,0,0,0,0,0,0,0.0693,0.0702,0.0786,0.079,0.0794,0.086,0.0839,0.0908,0.0896,0.0859,0.0897,0.0897,0.095,0.0957,0.0975,0.1027,0.1032,0.1012,0.1015,0.1016,0.1017,0,0,0,0,0,0,0,0.0688,0.0698,0.0792,0.0787,0.0792,0.0806,0.0816,0.0852,0.0903,0.0862,0.0865,0.0875,0.0953,0.0971,0.0977,0.1033,0.1012,0.1016,0.1018,0.1019,0.1111,0.1111,0,0,0,0,0,0,0.0677,0.0694,0.0789,0.0795,0.0743,0.0808,0.0819,0.0839,0.0903,0.0912,0.0875,0.0877,0.0964,0.0973,0.0981,0.1013,0.1016,0.102,0.1022,0.1111,0.1111,0.1111,0,0,0,0,0,0,0.0674,0.0685,0.0786,0.0745,0.0759,0.081,0.0832,0.0841,0.0859,0.0913,0.0923,0.0884,0.0965,0.0975,0.1012,0.1017,0.1022,0.1025,0.1111,0.1111,0.1111,0.1075,0,0,0,0,0,0,0.067,0.0683,0.0691,0.0745,0.0761,0.0814,0.0833,0.0843,0.0865,0.0869,0.0924,0.0933,0.0965,0.1006,0.1016,0.1022,0.1028,0.111,0.1111,0.1111,0.1076,0.1074,0.1072,0,0,0,0,0,0.0665,0.0678,0.0691,0.0703,0.0772,0.0814,0.0823,0.0859,0.0865,0.0875,0.0909,0.0931,0.1014,0.1009,0.1021,0.1028,0.111,0.1111,0.1111,0.1077,0.1075,0.1072,0,0,0,0,0,0,0.0625,0.0686,0.0701,0.0732,0.0767,0.0821,0.0834,0.0855,0.089,0.0892,0.0936,0.0948,0.0981,0.1009,0.1002,0.1054,0.1065,0.1067,0.1035,0.1033,0.1031,0.1024,0.1031,0,0,0,0,0,0.0619,0.0646,0.0699,0.0721,0.0738,0.0783,0.0802,0.0827,0.0866,0.0881,0.0919,0.0957,0.0992,0.1014,0.1049,0.108,0.1094,0.1091,0.1089,0.1087,0.1089,0.111,0.1109,0.1112,0.1112,0.1112,0,0,0.0608,0.0645,0.066,0.0714,0.0744,0.0773,0.0795,0.0825,0.0847,0.0887,0.0923,0.0952,0.0998,0.1032,0.1049,0.1056,0.1092,0.1088,0.1086,0.1089,0.111,0.111,0.1109,0.1112,0.1112,0.1112,0,0,0.0604,0.0633,0.0656,0.0685,0.0731,0.0761,0.0766,0.0817,0.0838,0.0875,0.0905,0.0934,0.0992,0.1024,0.1048,0.1056,0.1078,0.1066,0.1057,0.1076,0.1076,0.1076,0.108,0.1081,0.1068,0.1068,0.1068,0,0.0585,0.0628,0.0665,0.0693,0.0717,0.0752,0.0776,0.0804,0.0858,0.0875,0.0881,0.0956,0.099,0.1032,0.1034,0.1052,0.1061,0.1061,0.1072,0.1073,0.1074,0.1078,0.1079,0.1066,0.1067,0.1067,0.1067,0,0.0604,0.0634,0.0647,0.0697,0.0723,0.0748,0.079,0.0812,0.0834,0.0864,0.0903,0.0944,0.0988,0.1,0.1023,0.1047,0.105,0.1063,0.1075,0.1071,0.1076,0.1078,0.1064,0.1065,0.1065,0.1065,0,0,0.0576,0.0647,0.0651,0.0675,0.0728,0.0753,0.0781,0.0823,0.0841,0.0878,0.0904,0.0953,0.0967,0.0994,0.1021,0.1037,0.1043,0.105,0.1051,0.1048,0.1073,0.1063,0.1064,0.1058,0.1058,0.1058,0.107,0,0.058,0.0631,0.0665,0.0703,0.0732,0.0767,0.0792,0.0828,0.0856,0.0886,0.0919,0.0953,0.0968,0.0985,0.1002,0.1038,0.1049,0.1038,0.1084,0.1085,0.1072,0.1067,0.1056,0.1065,0.1072,0.1072,0.1073,0,0.0591,0.0626,0.0666,0.0717,0.073,0.0752,0.0794,0.0822,0.0864,0.0884,0.0914,0.0941,0.0975,0.0983,0.103,0.1022,0.1043,0.1063,0.1065,0.1071,0.1079,0.1074,0.1068,0.107,0.1076,0.1076,0.1075,0,0.0568,0.0625,0.0657,0.0677,0.0736,0.0751,0.0776,0.0818,0.0842,0.0879,0.0896,0.0937,0.0959,0.0991,0.103,0.1032,0.1074,0.1085,0.1093,0.1092,0.1101,0.11,0.1099,0.1113,0.1112,0.1112,0.1112,0,0.0569,0.0593,0.0648,0.0668,0.0696,0.0736,0.0763,0.0792,0.0829,0.0856,0.0889,0.0914,0.0963,0.0995,0.1025,0.1061,0.107,0.1089,0.1097,0.1086,0.1084,0.1101,0.1102,0.1113,0.1113,0.1113,0.1113,0,0.0549,0.0586,0.0624,0.0677,0.0691,0.0709,0.0755,0.0777,0.0807,0.0841,0.0852,0.09,0.0939,0.0981,0.1034,0.1055,0.1089,0.11,0.1074,0.1079,0.1085,0.1084,0.1096,0.11,0.111,0.1109,0.1109,0,0.0547,0.0566,0.0621,0.0641,0.0666,0.0697,0.0722,0.0762,0.0786,0.0836,0.0852,0.0893,0.0928,0.0989,0.103,0.1072,0.1084,0.1085,0.1091,0.108,0.1086,0.1084,0.1087,0.1084,0.1084,0.1083,0.1083,0,0.0541,0.0559,0.0591,0.0631,0.0658,0.0692,0.0726,0.0741,0.0789,0.0815,0.0854,0.0881,0.0935,0.0977,0.1023,0.1052,0.1076,0.1081,0.1085,0.1075,0.106,0.1069,0.107,0.1081,0.1081,0.1081,0.1081,0.1081,0.0531,0.055,0.0592,0.0627,0.0657,0.0689,0.0712,0.0745,0.0778,0.0825,0.0847,0.0887,0.093,0.0995,0.1023,0.1056,0.1063,0.1069,0.1071,0.1072,0.1069,0.1054,0.1064,0.1065,0.1065,0.1065,0.1065,0,0.0528,0.0556,0.0588,0.0635,0.0664,0.0683,0.0722,0.0745,0.0779,0.0817,0.0851,0.0897,0.0937,0.0981,0.1025,0.1043,0.1055,0.1053,0.1052,0.1059,0.106,0.1052,0.1042,0.1042,0.1042,0.1042,0.1042,0.1042,0.0529,0.0562,0.0585,0.0634,0.0663,0.0701,0.0723,0.0753,0.0783,0.0833,0.0866,0.0893,0.0934,0.0981,0.1019,0.1032,0.1046,0.1041,0.1057,0.1057,0.1059,0.106,0.1053,0.1044,0.1044,0.1053,0.1053,0.1053]},{"header":{"parameterUnit":"m.s-1","parameterCategory":1,"la1":30.2991,"la2":30.254,"lo1":-89.0895,"lo2":-89.0444,"dy":0.0017,"dx":0.0017,"nx":28,"ny":28,"refTime":"2026-01-06T03:00:00:Z","depth":0,"parameterNumber":3,"parameterNumberName":"V-component_of_WINDS"},"data":[0,0,0,0,0,0,0,0,0,0,0,0,0,0,0,0,0,0,0,0,0,0,0,0,0,0,0,0,0,0,0,0,0,0,0,0,0,0,0,0,0,0,0,0,0,0,0,0,0,0,0,0,0,0,0,0,0,0,3.1994,3.1995,0,3.2054,3.2055,3.2056,3.2064,3.2064,3.2063,3.2062,3.212,3.2122,3.2124,0,0,0,0,0,0,0,0,0,0,0,0,0,3.1883,3.1885,3.1994,3.1995,3.1995,3.2054,3.2055,3.2056,3.2064,3.2063,3.2063,3.2062,3.2119,3.2122,3.2124,0,0,0,0,0,0,0,0,0,0,0,0,0,3.1936,3.1885,3.1994,3.2007,3.2009,3.2054,3.2055,3.2056,3.2064,3.2063,3.2063,3.2062,3.2119,3.2122,3.2125,3.216,0,0,3.2134,3.2135,0,0,0,0,0,0,0,0,3.1933,3.194,3.2004,3.2006,3.2008,3.2051,3.2037,3.2091,3.2065,3.2043,3.2062,3.2061,3.2097,3.2102,3.2115,3.2163,3.2165,3.2134,3.2136,3.2137,3.2138,0,0,0,0,0,0,0,3.1929,3.1937,3.2018,3.2005,3.2007,3.2009,3.2015,3.2047,3.2074,3.2045,3.2046,3.2053,3.2098,3.2112,3.2117,3.2166,3.2134,3.2137,3.2139,3.214,3.2247,3.2248,0,0,0,0,0,0,3.1923,3.1934,3.2016,3.2019,3.1968,3.2011,3.2019,3.2038,3.2074,3.2078,3.2053,3.2053,3.2107,3.2113,3.2119,3.2164,3.2137,3.214,3.2142,3.2246,3.2248,3.2249,0,0,0,0,0,0,3.1921,3.1931,3.2013,3.1977,3.1988,3.2014,3.2036,3.204,3.2054,3.208,3.2085,3.2063,3.2107,3.2114,3.215,3.2166,3.2142,3.2144,3.2245,3.2247,3.2248,3.2254,0,0,0,0,0,0,3.1918,3.193,3.1944,3.1977,3.199,3.2045,3.2037,3.2041,3.2059,3.2059,3.209,3.2095,3.2107,3.2146,3.2153,3.217,3.2147,3.2244,3.2246,3.2248,3.2253,3.2256,3.2258,0,0,0,0,0,3.1914,3.1942,3.1945,3.1955,3.2008,3.2046,3.2053,3.2067,3.206,3.2075,3.2092,3.2094,3.2163,3.2149,3.2158,3.2176,3.2243,3.2245,3.2248,3.2252,3.2255,3.2258,0,0,0,0,0,0,3.1908,3.1947,3.195,3.199,3.2015,3.2047,3.2066,3.2071,3.2097,3.2095,3.2111,3.2118,3.2154,3.2168,3.2152,3.2213,3.2202,3.2206,3.2202,3.2206,3.2209,3.2205,3.2149,0,0,0,0,0,3.1912,3.194,3.1972,3.2004,3.2017,3.2039,3.2056,3.2065,3.2091,3.2101,3.2121,3.2145,3.2172,3.219,3.2216,3.2255,3.2262,3.2271,3.2274,3.2276,3.228,3.2303,3.2307,3.2256,3.2256,3.2256,0,0,3.1919,3.1944,3.1961,3.2004,3.2024,3.2053,3.2048,3.2078,3.2099,3.2105,3.2142,3.2157,3.2184,3.2222,3.224,3.2235,3.2295,3.2279,3.228,3.2283,3.2305,3.231,3.2315,3.2258,3.2257,3.2257,0,0,3.1948,3.1969,3.2,3.2021,3.2052,3.2067,3.2074,3.2106,3.2118,3.2154,3.216,3.2185,3.2231,3.2251,3.2267,3.2305,3.2307,3.2313,3.2328,3.235,3.2354,3.2358,3.2372,3.2377,3.2316,3.2316,3.2316,0,3.1953,3.1998,3.2014,3.2045,3.2064,3.2073,3.2103,3.2122,3.216,3.2172,3.2167,3.2227,3.2245,3.2289,3.2299,3.2311,3.232,3.231,3.2352,3.2356,3.236,3.2374,3.2379,3.2317,3.2316,3.2316,3.2316,0,3.2003,3.2034,3.2054,3.2093,3.2114,3.2145,3.2165,3.2184,3.2192,3.2207,3.2245,3.2268,3.23,3.2311,3.2317,3.2356,3.2352,3.2349,3.2339,3.2365,3.2379,3.2384,3.2317,3.2317,3.2317,3.2317,0,0,3.203,3.2079,3.2086,3.2105,3.214,3.2164,3.2195,3.2228,3.2245,3.227,3.2297,3.2336,3.2334,3.2353,3.2362,3.2381,3.2411,3.2376,3.2377,3.2383,3.2456,3.2459,3.2465,3.2413,3.2414,3.2415,3.2454,0,3.2064,3.2122,3.2138,3.2185,3.2215,3.2223,3.225,3.2275,3.229,3.2316,3.2332,3.2361,3.2355,3.2366,3.2386,3.2403,3.2426,3.24,3.2437,3.2439,3.2432,3.2472,3.2476,3.2512,3.246,3.2461,3.2461,0,3.2112,3.2141,3.2193,3.2227,3.2239,3.2263,3.2296,3.2321,3.2348,3.2358,3.2379,3.2387,3.2419,3.2406,3.2451,3.2433,3.2449,3.246,3.2461,3.2466,3.2452,3.248,3.2524,3.253,3.247,3.2469,3.2468,0,3.2129,3.218,3.2219,3.2234,3.2273,3.229,3.2307,3.2335,3.2354,3.2382,3.2395,3.2425,3.2441,3.2464,3.248,3.2469,3.2523,3.2511,3.2532,3.2532,3.2544,3.2543,3.2593,3.2552,3.2552,3.2551,3.2551,0,3.2166,3.2198,3.2227,3.2251,3.2286,3.2304,3.2338,3.2355,3.2379,3.2406,3.2414,3.2438,3.2457,3.2483,3.2495,3.2531,3.2537,3.2546,3.2549,3.2546,3.2546,3.2558,3.2556,3.2553,3.2553,3.2552,3.2552,0,3.2191,3.2212,3.2255,3.229,3.2299,3.2324,3.2353,3.2376,3.2392,3.2425,3.2434,3.2458,3.249,3.2508,3.2547,3.2555,3.2595,3.2596,3.2586,3.2588,3.2608,3.2607,3.2669,3.2678,3.2629,3.263,3.263,0,3.2215,3.224,3.2278,3.2297,3.2315,3.2346,3.2366,3.2384,3.2405,3.2439,3.2458,3.2491,3.2518,3.2569,3.2589,3.2619,3.2622,3.2642,3.2626,3.2623,3.2624,3.2623,3.2626,3.2644,3.2645,3.2645,3.2646,0,3.2254,3.2264,3.2294,3.2328,3.2353,3.238,3.2407,3.2422,3.2444,3.2467,3.2501,3.2522,3.2564,3.2596,3.2629,3.2645,3.2649,3.265,3.2657,3.2655,3.2649,3.2654,3.2595,3.2649,3.2648,3.2648,3.2648,3.2648,3.2281,3.2304,3.2335,3.2369,3.2391,3.2417,3.244,3.246,3.2489,3.2526,3.2534,3.257,3.2597,3.2641,3.2659,3.2686,3.2683,3.2692,3.2694,3.2697,3.2699,3.2644,3.2692,3.2692,3.2692,3.2692,3.2692,0,3.2322,3.2343,3.2374,3.2413,3.2439,3.2442,3.2472,3.2494,3.2526,3.2552,3.258,3.2619,3.2651,3.2674,3.2707,3.2724,3.2727,3.2732,3.2732,3.2736,3.2699,3.2691,3.273,3.273,3.273,3.273,3.273,3.273,3.2347,3.2388,3.2401,3.2452,3.2472,3.2509,3.2527,3.255,3.2571,3.2615,3.2643,3.2658,3.2683,3.2718,3.2747,3.2753,3.2765,3.277,3.2777,3.2742,3.2738,3.2734,3.2727,3.2773,3.2773,3.2811,3.2812,3.2812]}]]